DEAFM EDXW-EDXW

Flight info

Callsign DEAFM
Flight time 0h 8m
Altitude
Route
Aircraft C172

Departure

Time 2026-04-27 20:14
Airport Westerland Sylt Airport (EDXW)

Arrival

Time 2026-04-27 20:23
Airport Westerland Sylt Airport (EDXW)
Time Latitude Longitude Altitude Speed Heading
2026-04-27 20:06 54.91277 8.32475 53 ft 0 kts 245°
2026-04-27 20:09 54.91277 8.32474 53 ft 0 kts 239°
2026-04-27 20:09 54.91268 8.32476 53 ft 2 kts 123°
2026-04-27 20:09 54.91256 8.32548 53 ft 11 kts 101°
2026-04-27 20:10 54.91195 8.32646 53 ft 16 kts 135°
2026-04-27 20:10 54.91091 8.32850 53 ft 22 kts 130°
2026-04-27 20:10 54.91002 8.33046 54 ft 19 kts 96°
2026-04-27 20:10 54.91058 8.33251 52 ft 21 kts 60°
2026-04-27 20:11 54.91147 8.33502 50 ft 28 kts 59°
2026-04-27 20:11 54.91245 8.33806 51 ft 27 kts 60°
2026-04-27 20:11 54.91301 8.33979 53 ft 10 kts 58°
2026-04-27 20:11 54.91331 8.34038 53 ft 5 kts 348°
2026-04-27 20:12 54.91359 8.34005 53 ft 4 kts 322°
2026-04-27 20:12 54.91372 8.33989 53 ft 3 kts 328°
2026-04-27 20:12 54.91378 8.33982 53 ft 0 kts 324°
2026-04-27 20:12 54.91459 8.33882 53 ft 39 kts 324°
2026-04-27 20:13 54.91790 8.33382 123 ft 79 kts 317°
2026-04-27 20:13 54.92223 8.32616 273 ft 92 kts 324°
2026-04-27 20:13 54.92694 8.31793 433 ft 103 kts 305°
2026-04-27 20:13 54.92401 8.30598 442 ft 127 kts 211°
2026-04-27 20:14 54.91586 8.30044 650 ft 126 kts 197°
2026-04-27 20:14 54.90719 8.29615 730 ft 132 kts 189°
2026-04-27 20:14 54.89821 8.29630 870 ft 129 kts 166°
2026-04-27 20:14 54.88971 8.30154 934 ft 132 kts 155°
2026-04-27 20:15 54.88090 8.30834 770 ft 140 kts 151°
2026-04-27 20:15 54.87234 8.31639 720 ft 133 kts 130°
2026-04-27 20:15 54.87032 8.33041 699 ft 119 kts 63°
2026-04-27 20:15 54.87528 8.33874 916 ft 74 kts 43°
2026-04-27 20:16 54.87907 8.34425 1053 ft 60 kts 43°
2026-04-27 20:16 54.88260 8.34924 1043 ft 72 kts 37°
2026-04-27 20:16 54.88705 8.35416 911 ft 83 kts 33°
2026-04-27 20:16 54.89236 8.35804 640 ft 84 kts
2026-04-27 20:17 54.89780 8.35784 428 ft 76 kts 348°
2026-04-27 20:17 54.90230 8.35358 193 ft 77 kts 334°
2026-04-27 20:17 54.90658 8.34862 58 ft 62 kts 330°
2026-04-27 20:17 54.90864 8.34621 56 ft 54 kts 334°
2026-04-27 20:18 54.91354 8.33973 181 ft 80 kts 330°
2026-04-27 20:18 54.91850 8.33365 360 ft 93 kts 335°
2026-04-27 20:18 54.92399 8.33599 601 ft 94 kts 54°
2026-04-27 20:18 54.92744 8.34603 791 ft 97 kts 53°
2026-04-27 20:19 54.93143 8.35559 1019 ft 97 kts 50°
2026-04-27 20:19 54.93327 8.36602 1184 ft 111 kts 110°
2026-04-27 20:19 54.92599 8.37396 1028 ft 138 kts 167°
2026-04-27 20:19 54.91643 8.37442 1055 ft 137 kts 176°
2026-04-27 20:20 54.90693 8.37593 1012 ft 140 kts 167°
2026-04-27 20:20 54.89747 8.37994 912 ft 140 kts 160°
2026-04-27 20:20 54.88847 8.38591 823 ft 139 kts 155°
2026-04-27 20:20 54.87993 8.39354 792 ft 134 kts 144°
2026-04-27 20:21 54.87279 8.40364 716 ft 138 kts 146°
2026-04-27 20:21 54.86900 8.39545 577 ft 124 kts 323°
2026-04-27 20:21 54.87511 8.38635 758 ft 113 kts 331°
2026-04-27 20:21 54.88092 8.37924 628 ft 122 kts 332°
2026-04-27 20:22 54.88677 8.37213 893 ft 114 kts 327°
2026-04-27 20:22 54.89392 8.36375 693 ft 128 kts 327°
2026-04-27 20:22 54.89955 8.35662 437 ft 81 kts 334°
2026-04-27 20:22 54.90410 8.35158 96 ft 73 kts 332°
2026-04-27 20:23 54.90746 8.34764 52 ft 43 kts 327°
2026-04-27 20:23 54.91037 8.34387 116 ft 59 kts 322°
2026-04-27 20:23 54.91310 8.33979 246 ft 57 kts 326°
2026-04-27 20:23 54.91679 8.33424 357 ft 82 kts 327°
2026-04-27 20:24 54.92118 8.32625 459 ft 100 kts 315°
2026-04-27 20:24 54.92435 8.31243 151 ft 129 kts 289°
2026-04-27 20:24 54.91960 8.30452 232 ft 90 kts 192°
2026-04-27 20:24 54.91329 8.30349 336 ft 100 kts 175°
2026-04-27 20:25 54.90859 8.30478 481 ft 105 kts 162°
2026-04-27 20:25 54.90177 8.30979 707 ft 108 kts 145°
2026-04-27 20:25 54.89472 8.31684 717 ft 126 kts 141°
2026-04-27 20:25 54.88656 8.33155 718 ft 131 kts 130°
2026-04-27 20:26 54.88252 8.33907 780 ft 128 kts 126°
2026-04-27 20:26 54.87947 8.35661 824 ft 118 kts 47°
2026-04-27 20:26 54.88377 8.36241 846 ft 117 kts 34°
2026-04-27 20:26 54.89110 8.36420 730 ft 90 kts 343°
2026-04-27 20:27 54.89617 8.36058 473 ft 75 kts 338°
2026-04-27 20:27 54.90027 8.35601 269 ft 67 kts 336°
2026-04-27 20:27 54.90412 8.35151 99 ft 64 kts 332°
2026-04-27 20:27 54.90744 8.34759 52 ft 45 kts 330°
2026-04-27 20:28 54.90934 8.34533 55 ft 24 kts 324°
2026-04-27 20:28 54.91067 8.34380 56 ft 24 kts 335°
2026-04-27 20:28 54.91221 8.34194 55 ft 30 kts 318°
2026-04-27 20:28 54.91356 8.33961 53 ft 15 kts 334°
2026-04-27 20:29 54.91481 8.33924 53 ft 21 kts 336°
2026-04-27 20:29 54.90688 8.34817 52 ft 0 kts 333°